sat.trackr.live / text

‹ back to catalog

STARLINK-30924

NORAD 58412 · 2023-180L

PAYLOAD ACTIVE UNKNOWN

§ Identity

Operator
Country
US
Launch date
2023-11-22
Launch site
AFETR
Launch vehicle
Mass (kg)
RCS (m²)

Purposes: comms

External: N2YO · Heavens-Above · Gunter

§ Orbital elements

Epoch: 2026-05-25T03:39:55.175616Z

Period
93.41 min
Inclination
42.9995°
Eccentricity
0.0008812
Mean motion
15.41587057 rev/d
Perigee alt
435.4 km
Apogee alt
447.4 km
Semi-major
6,819.6 km
B*
4.3474e-4
RAAN
187.1462°
Arg perigee
62.5244°
Mean anomaly
297.6508°
Rev number
14,112

§ Raw data

STARLINK-309241 58412U 23180L   26145.15272194  .00018463  00000+0  43474-3 0  99992 58412  42.9995 187.1462 0008812  62.5244 297.6508 15.41587057141120

JSON: /api/v1/satellites/58412 · /tle

For live sub-satellite position, see the globe view (requires WebGL).

§ Visibility from observer

Set your observer location to see the next 7 days of passes ≥ 10°. The values pass through the URL so the page stays shareable.

No JS? Fill the form by hand. The geolocation button needs JavaScript.